EZY38KQ LFRS-EGKK

Flight info

Callsign EZY38KQ
Flight time 0h 47m
Altitude 28000
Route BALNI DCT RINSO UM184 EKRAS UT507 REVTU DCT ODREP UP88 VASUX
Aircraft A320/M-SDE3FGHIRWY/LB1

Departure

Time 2026-05-07 12:16
Airport Nantes Atlantique Airport (LFRS)

Arrival

Time 2026-05-07 13:03
Airport London Gatwick Airport (EGKK)
Time Latitude Longitude Altitude Speed Heading
2026-05-07 11:57 47.15647 -1.60156 89 ft 0 kts 57°
2026-05-07 12:10 47.15638 -1.60177 90 ft 4 kts 51°
2026-05-07 12:10 47.15619 -1.60205 90 ft 4 kts 32°
2026-05-07 12:11 47.15597 -1.60216 90 ft 4 kts 340°
2026-05-07 12:11 47.15587 -1.60208 90 ft 0 kts 300°
2026-05-07 12:13 47.15594 -1.60224 90 ft 11 kts 301°
2026-05-07 12:13 47.15653 -1.60335 90 ft 14 kts 318°
2026-05-07 12:13 47.15722 -1.60422 90 ft 13 kts 325°
2026-05-07 12:13 47.15832 -1.60413 93 ft 18 kts 28°
2026-05-07 12:14 47.15942 -1.60340 90 ft 15 kts 356°
2026-05-07 12:14 47.15983 -1.60418 89 ft 6 kts 297°
2026-05-07 12:14 47.16009 -1.60493 84 ft 12 kts 297°
2026-05-07 12:14 47.15978 -1.60572 84 ft 10 kts 211°
2026-05-07 12:15 47.15862 -1.60666 83 ft 46 kts 208°
2026-05-07 12:15 47.15360 -1.61038 89 ft 112 kts 208°
2026-05-07 12:15 47.14509 -1.61687 146 ft 157 kts 206°
2026-05-07 12:15 47.13526 -1.62462 688 ft 165 kts 206°
2026-05-07 12:16 47.12513 -1.63359 1319 ft 176 kts 211°
2026-05-07 12:16 47.11610 -1.64718 1788 ft 201 kts 238°
2026-05-07 12:16 47.11316 -1.66779 2450 ft 215 kts 278°
2026-05-07 12:16 47.12036 -1.68668 3286 ft 218 kts 321°
2026-05-07 12:17 47.13334 -1.69784 4153 ft 217 kts 340°
2026-05-07 12:17 47.14821 -1.70364 4879 ft 229 kts 351°
2026-05-07 12:17 47.16465 -1.70961 5233 ft 261 kts 341°
2026-05-07 12:17 47.18241 -1.72032 5672 ft 286 kts 335°
2026-05-07 12:18 47.20036 -1.73298 6658 ft 284 kts 333°
2026-05-07 12:18 47.21854 -1.74464 7604 ft 286 kts 342°
2026-05-07 12:18 47.23810 -1.74963 8578 ft 289 kts 358°
2026-05-07 12:18 47.25830 -1.74723 9559 ft 294 kts
2026-05-07 12:19 47.27881 -1.74299 10309 ft 305 kts
2026-05-07 12:19 47.30062 -1.73845 10600 ft 328 kts
2026-05-07 12:19 47.32367 -1.73371 10972 ft 346 kts
2026-05-07 12:19 47.34813 -1.72872 11731 ft 354 kts
2026-05-07 12:20 47.37241 -1.72379 12528 ft 360 kts
2026-05-07 12:20 47.39744 -1.71873 13308 ft 365 kts
2026-05-07 12:20 47.42278 -1.71362 14013 ft 370 kts
2026-05-07 12:20 47.44843 -1.70845 14673 ft 374 kts
2026-05-07 12:21 47.47432 -1.70325 15331 ft 378 kts
2026-05-07 12:21 47.50049 -1.69796 15979 ft 382 kts
2026-05-07 12:21 47.52701 -1.69258 16615 ft 385 kts
2026-05-07 12:21 47.55371 -1.68716 17254 ft 389 kts
2026-05-07 12:22 47.58067 -1.68162 17886 ft 393 kts
2026-05-07 12:22 47.60781 -1.67571 18495 ft 397 kts 11°
2026-05-07 12:22 47.63447 -1.66463 19051 ft 400 kts 20°
2026-05-07 12:22 47.66049 -1.64958 19635 ft 403 kts 21°
2026-05-07 12:23 47.68674 -1.63434 20214 ft 406 kts 21°
2026-05-07 12:23 47.71309 -1.61905 20765 ft 409 kts 21°
2026-05-07 12:23 47.73974 -1.60359 21333 ft 412 kts 21°
2026-05-07 12:23 47.76657 -1.58804 21888 ft 416 kts 20°
2026-05-07 12:24 47.79359 -1.57237 22435 ft 419 kts 20°
2026-05-07 12:24 47.82085 -1.55651 22966 ft 421 kts 20°
2026-05-07 12:24 47.84822 -1.54054 23492 ft 424 kts 20°
2026-05-07 12:24 47.87585 -1.52443 23929 ft 427 kts 20°
2026-05-07 12:25 47.90325 -1.50846 24341 ft 430 kts 20°
2026-05-07 12:25 47.93154 -1.49195 24776 ft 432 kts 20°
2026-05-07 12:25 47.95966 -1.47551 25203 ft 435 kts 20°
2026-05-07 12:25 47.98749 -1.45922 25598 ft 437 kts 20°
2026-05-07 12:26 48.01663 -1.44566 25972 ft 438 kts 11°
2026-05-07 12:26 48.04678 -1.43902 26353 ft 439 kts
2026-05-07 12:26 48.07729 -1.43939 26721 ft 440 kts 355°
2026-05-07 12:26 48.10791 -1.44182 27082 ft 442 kts 355°
2026-05-07 12:27 48.13878 -1.44412 27441 ft 444 kts 355°
2026-05-07 12:27 48.16971 -1.44632 27789 ft 447 kts 356°
2026-05-07 12:27 48.20089 -1.44847 27987 ft 453 kts 356°
2026-05-07 12:28 48.26509 -1.45293 28034 ft 470 kts 356°
2026-05-07 12:28 48.33129 -1.45755 28040 ft 481 kts 356°
2026-05-07 12:29 48.39864 -1.46244 28034 ft 488 kts 356°
2026-05-07 12:29 48.46671 -1.46747 28039 ft 491 kts 356°
2026-05-07 12:30 48.53514 -1.47241 28033 ft 493 kts 356°
2026-05-07 12:30 48.60363 -1.47741 28040 ft 493 kts 356°
2026-05-07 12:31 48.67223 -1.48248 28043 ft 493 kts 356°
2026-05-07 12:31 48.74075 -1.48746 28040 ft 493 kts 356°
2026-05-07 12:32 48.80929 -1.49242 28039 ft 493 kts 356°
2026-05-07 12:32 48.87775 -1.49748 28037 ft 492 kts 356°
2026-05-07 12:33 48.97849 -1.52446 28043 ft 491 kts 346°
2026-05-07 12:33 49.04533 -1.54606 28036 ft 491 kts 346°
2026-05-07 12:34 49.11220 -1.56762 28042 ft 491 kts 346°
2026-05-07 12:34 49.17895 -1.58907 28046 ft 490 kts 346°
2026-05-07 12:35 49.24583 -1.60492 28026 ft 493 kts
2026-05-07 12:35 49.31476 -1.59660 28045 ft 494 kts
2026-05-07 12:36 49.38272 -1.58720 28052 ft 494 kts
2026-05-07 12:36 49.45108 -1.57769 28051 ft 493 kts
2026-05-07 12:37 49.51950 -1.56830 28059 ft 493 kts
2026-05-07 12:37 49.58786 -1.55894 28060 ft 493 kts
2026-05-07 12:38 49.65623 -1.54968 28064 ft 493 kts
2026-05-07 12:38 49.71304 -1.54186 28061 ft 492 kts
2026-05-07 12:39 49.78131 -1.53239 28066 ft 492 kts
2026-05-07 12:39 49.84950 -1.52291 28062 ft 492 kts
2026-05-07 12:40 49.91775 -1.51340 28062 ft 492 kts
2026-05-07 12:40 49.98591 -1.50370 28079 ft 492 kts
2026-05-07 12:41 50.05230 -1.47668 28074 ft 494 kts 16°
2026-05-07 12:41 50.11790 -1.44457 28076 ft 494 kts 16°
2026-05-07 12:42 50.18334 -1.41250 27983 ft 488 kts 16°
2026-05-07 12:42 50.21506 -1.39697 26998 ft 480 kts 16°
2026-05-07 12:42 50.24697 -1.38134 25682 ft 481 kts 16°
2026-05-07 12:43 50.27900 -1.36557 24527 ft 481 kts 16°
2026-05-07 12:43 50.31073 -1.34989 23715 ft 475 kts 16°
2026-05-07 12:43 50.34219 -1.33431 23089 ft 473 kts 16°
2026-05-07 12:43 50.37360 -1.31871 22503 ft 470 kts 16°
2026-05-07 12:44 50.40463 -1.30327 21959 ft 467 kts 16°
2026-05-07 12:44 50.43550 -1.28792 21421 ft 463 kts 16°
2026-05-07 12:44 50.46612 -1.27271 20869 ft 460 kts 16°
2026-05-07 12:44 50.49598 -1.25477 20319 ft 457 kts 26°
2026-05-07 12:45 50.52276 -1.22831 19756 ft 455 kts 38°
2026-05-07 12:45 50.54707 -1.19658 19190 ft 452 kts 39°
2026-05-07 12:45 50.57103 -1.16500 18623 ft 448 kts 39°
2026-05-07 12:45 50.59482 -1.13363 17996 ft 444 kts 40°
2026-05-07 12:46 50.61812 -1.10286 17419 ft 441 kts 40°
2026-05-07 12:46 50.64178 -1.07163 16830 ft 436 kts 40°
2026-05-07 12:46 50.66366 -1.03962 16252 ft 432 kts 49°
2026-05-07 12:46 50.68274 -1.00340 15692 ft 428 kts 51°
2026-05-07 12:47 50.70148 -0.96733 15114 ft 424 kts 51°
2026-05-07 12:47 50.72008 -0.93144 14543 ft 420 kts 51°
2026-05-07 12:47 50.73846 -0.89596 13979 ft 415 kts 51°
2026-05-07 12:47 50.75664 -0.86077 13468 ft 410 kts 52°
2026-05-07 12:48 50.77458 -0.82592 13371 ft 409 kts 52°
2026-05-07 12:48 50.79229 -0.79151 13252 ft 395 kts 52°
2026-05-07 12:48 50.80729 -0.75632 13111 ft 376 kts 65°
2026-05-07 12:48 50.81544 -0.71842 12903 ft 356 kts 80°
2026-05-07 12:49 50.81991 -0.68121 12580 ft 333 kts 81°
2026-05-07 12:49 50.82401 -0.64623 12241 ft 315 kts 81°
2026-05-07 12:49 50.82786 -0.61290 11906 ft 302 kts 81°
2026-05-07 12:49 50.83157 -0.58043 11527 ft 300 kts 81°
2026-05-07 12:50 50.83525 -0.54798 11103 ft 300 kts 81°
2026-05-07 12:50 50.83895 -0.51547 10681 ft 300 kts 81°
2026-05-07 12:50 50.84268 -0.48292 10265 ft 300 kts 81°
2026-05-07 12:50 50.84644 -0.45047 9842 ft 300 kts 81°
2026-05-07 12:51 50.85019 -0.41804 9374 ft 299 kts 81°
2026-05-07 12:51 50.85382 -0.38647 8873 ft 291 kts 81°
2026-05-07 12:51 50.85737 -0.35538 8348 ft 284 kts 81°
2026-05-07 12:51 50.86088 -0.32481 7832 ft 279 kts 80°
2026-05-07 12:52 50.86428 -0.29506 7325 ft 270 kts 80°
2026-05-07 12:52 50.86754 -0.26621 6825 ft 263 kts 79°
2026-05-07 12:52 50.87076 -0.23777 6317 ft 256 kts 79°
2026-05-07 12:52 50.87383 -0.21061 5797 ft 251 kts 79°
2026-05-07 12:53 50.87684 -0.18350 5283 ft 248 kts 79°
2026-05-07 12:53 50.87984 -0.15662 4763 ft 250 kts 78°
2026-05-07 12:53 50.88632 -0.13162 4582 ft 243 kts 54°
2026-05-07 12:53 50.89863 -0.11341 4530 ft 244 kts 28°
2026-05-07 12:54 50.91471 -0.10560 4472 ft 243 kts
2026-05-07 12:54 50.93116 -0.10992 4423 ft 241 kts 335°
2026-05-07 12:54 50.94460 -0.12475 4373 ft 240 kts 313°
2026-05-07 12:54 50.95613 -0.14392 4320 ft 240 kts 313°
2026-05-07 12:55 50.96773 -0.16315 4273 ft 240 kts 313°
2026-05-07 12:55 50.97879 -0.18291 4212 ft 240 kts 304°
2026-05-07 12:55 50.98683 -0.20599 4113 ft 239 kts 290°
2026-05-07 12:55 50.99143 -0.23135 4069 ft 239 kts 283°
2026-05-07 12:56 50.99548 -0.25706 4015 ft 239 kts 284°
2026-05-07 12:56 50.99956 -0.28261 3932 ft 238 kts 284°
2026-05-07 12:56 51.00365 -0.30810 3833 ft 238 kts 284°
2026-05-07 12:56 51.00771 -0.33348 3726 ft 237 kts 284°
2026-05-07 12:57 51.01173 -0.35867 3601 ft 231 kts 284°
2026-05-07 12:57 51.01562 -0.38296 3474 ft 228 kts 284°
2026-05-07 12:57 51.02116 -0.40639 3355 ft 227 kts 303°
2026-05-07 12:57 51.03240 -0.42352 3300 ft 228 kts 331°
2026-05-07 12:58 51.04759 -0.43029 3255 ft 229 kts 358°
2026-05-07 12:58 51.06331 -0.43015 3202 ft 220 kts
2026-05-07 12:58 51.07836 -0.42986 3108 ft 213 kts
2026-05-07 12:58 51.09308 -0.42956 3012 ft 210 kts
2026-05-07 12:59 51.10683 -0.42654 2978 ft 193 kts 26°
2026-05-07 12:59 51.11627 -0.41301 3038 ft 177 kts 62°
2026-05-07 12:59 51.11948 -0.39480 2764 ft 173 kts 78°
2026-05-07 12:59 51.12216 -0.37625 2441 ft 169 kts 77°
2026-05-07 13:00 51.12474 -0.35833 2186 ft 163 kts 78°
2026-05-07 13:00 51.12719 -0.34095 1979 ft 160 kts 78°
2026-05-07 13:00 51.12961 -0.32369 1752 ft 159 kts 78°
2026-05-07 13:00 51.13198 -0.30676 1534 ft 158 kts 78°
2026-05-07 13:01 51.13436 -0.28966 1317 ft 154 kts 78°
2026-05-07 13:01 51.13662 -0.27341 1110 ft 152 kts 78°
2026-05-07 13:01 51.13888 -0.25718 891 ft 146 kts 78°
2026-05-07 13:01 51.14106 -0.24197 692 ft 138 kts 77°
2026-05-07 13:02 51.14310 -0.22726 488 ft 134 kts 79°
2026-05-07 13:02 51.14509 -0.21273 310 ft 133 kts 79°
2026-05-07 13:02 51.14703 -0.19845 207 ft 125 kts 78°
2026-05-07 13:02 51.14858 -0.18713 211 ft 80 kts 77°
2026-05-07 13:03 51.14942 -0.18096 204 ft 43 kts 77°
2026-05-07 13:03 51.15032 -0.17846 215 ft 15 kts 54°
2026-05-07 13:03 51.15098 -0.17754 205 ft 7 kts 349°
2026-05-07 13:03 51.15103 -0.17755 205 ft 0 kts 352°
2026-05-07 13:04 51.15147 -0.17762 205 ft 9 kts 355°
2026-05-07 13:04 51.15212 -0.17775 210 ft 11 kts 352°
2026-05-07 13:04 51.15265 -0.17706 206 ft 12 kts 77°
2026-05-07 13:04 51.15289 -0.17536 212 ft 18 kts 77°
2026-05-07 13:05 51.15328 -0.17371 208 ft 15 kts 23°
2026-05-07 13:05 51.15426 -0.17396 204 ft 13 kts 347°
2026-05-07 13:05 51.15508 -0.17425 204 ft 11 kts 347°
2026-05-07 13:05 51.15583 -0.17450 208 ft 11 kts 348°
2026-05-07 13:06 51.15661 -0.17477 207 ft 12 kts 347°
2026-05-07 13:06 51.15740 -0.17510 207 ft 10 kts 328°
2026-05-07 13:06 51.15751 -0.17545 207 ft 0 kts 288°
2026-05-07 13:06 51.15756 -0.17548 208 ft 2 kts 326°
2026-05-07 13:07 51.15785 -0.17545 208 ft 4 kts 11°
2026-05-07 13:07 51.15816 -0.17550 204 ft 6 kts 348°
2026-05-07 13:07 51.15839 -0.17558 204 ft 0 kts 347°